Weather in Posyolok Sovkhoza Komsomolets

Russia / Tambov Oblast     52°46′07″N   41°17′18″E
В апреле 2022 года жителям России запретили посещать сайт meteo.paraplan.net по решению Генеральной прокуратуры. Аудитория сайта уменьшилась в 10 раз. Владельцы сайта не видят смысла в поддержке погодного сервера в таких условиях. Сайт будет закрыт в октябре.
temp.,
°C
wind,
m/s
gust,
m/s
humid.,
%
clouds,
%
prec.,
mm/h
press.,
hPa
HPBL,
m
25 september, sun
sun2500:00+8ssw612855 0.0 1006438
03:00+8ssw61284100 0.0 1005510
06:00+8s61187100 0.1 1004541
09:00+8s61090100 1.3 10031195
12:00+8wsw5782100 0.3 10051015
15:00+8wsw5879100 0.4 1006806
18:00+8wsw6987100 0.0 1007965
21:00+7wsw61089100 0.3 10071088
26 september, mon
mon2600:00+7w71089100 1.3 10071152
03:00+7w71090100 1.6 10081074
06:00+7w61089100 0.1 10091036
09:00+8w71185100 0.2 1011852
12:00+10w7126878 0.1 10121351
15:00+12w7105672 0.1 10121477
18:00+10w486191 0.0 1013252
21:00+9wsw376985 0.0 1014187
27 september, tue
tue2700:00+7wsw337869 0.0 101430
03:00+7sw2275100 0.0 101413
06:00+8sse2369100 0.0 101356
09:00+7e2493100 2.8 1014166
12:00+8e4895100 3.6 1013309
15:00+8ene4794100 3.9 1012377
18:00+8ene3597100 0.0 1012191
21:00+8ene3498100 0.1 101195
28 september, wed
wed2800:00+10e3598100 1.5 1010125
03:00+11se3593100 1.8 1009113
06:00+11e51190100 0.4 1006250
09:00+13se51088100 0.8 1006452
12:00+16se4675100 0.8 1005350
15:00+14se61388100 2.9 1003778
18:00+14ssw51187100 0.6 1003461
21:00+13s389640 1.1 1004197
29 september, thu
thu2900:00+12ssw3696100 0.1 1005137
03:00+11sw3796100 0.1 1006145
06:00+11wsw48950 0.0 1008169
09:00+13w578410 0.0 1010391
12:00+17wnw56658 0.0 1012942
15:00+17nw556028 0.0 10131157
18:00+12nnw36795 0.0 1016121
21:00+10n358899 0.0 101886